{"data":{"norad_id":53198,"epoch":"2026-09-19T09:17:48.402528Z","epoch_age_seconds":168381,"freshness":"FRESH","line1":"1 53198U 22084K   26262.38736577 -.00000267  00000+0 -59483-5 0  9996","line2":"2 53198  97.2804 317.1602 0002070 123.5519 236.5922 15.33441006229170","mean_motion":15.33441006,"eccentricity":0.000207,"inclination_deg":97.2804,"raan_deg":317.1602,"arg_perigee_deg":123.5519,"mean_anomaly_deg":236.5922,"bstar":-5.9483e-6,"rev_number":22917,"period_min":93.906449244908,"perigee_km":464.13841358193,"apogee_km":466.97170209388,"semimajor_km":6843.6920578379,"source":"CELESTRAK","updated_at":"2026-09-20T09:00:40.190331Z"}}